TimeCDT,TemperatureF,Dew PointF,Humidity,Sea Level PressureIn,VisibilityMPH,Wind Direction,Wind SpeedMPH,Gust SpeedMPH,PrecipitationIn,Events,Conditions,WindDirDegrees,DateUTC
12:15 AM,32.0,30.2,93,29.80,3.0,SE,16.1,-,N/A,Rain,Light Rain,140,2013-03-18 05:15:00
12:35 AM,30.2,30.2,100,29.79,2.5,SSE,16.1,-,N/A,Rain,Freezing Rain,150,2013-03-18 05:35:00
12:55 AM,30.2,30.2,100,29.77,3.0,SSE,20.7,26.5,N/A,Rain,Freezing Rain,150,2013-03-18 05:55:00
1:15 AM,30.2,30.2,100,29.75,3.0,SSE,18.4,25.3,N/A,,Overcast,150,2013-03-18 06:15:00
1:35 AM,30.2,30.2,100,29.73,5.0,SE,20.7,29.9,N/A,Snow,Light Snow,140,2013-03-18 06:35:00
1:55 AM,30.2,30.2,100,29.72,6.0,SSE,19.6,29.9,N/A,Snow,Light Snow,150,2013-03-18 06:55:00
2:15 AM,30.2,30.2,100,29.71,6.0,SSE,23.0,28.8,N/A,Snow,Light Snow,150,2013-03-18 07:15:00
2:35 AM,30.2,30.2,100,29.70,7.0,SSE,21.9,32.2,N/A,Snow,Light Snow,150,2013-03-18 07:35:00
2:55 AM,30.2,30.2,100,29.69,7.0,SSE,20.7,31.1,N/A,Snow,Light Snow,160,2013-03-18 07:55:00
3:15 AM,30.2,30.2,100,29.67,7.0,SSE,24.2,31.1,N/A,Snow,Light Snow,150,2013-03-18 08:15:00
3:35 AM,30.2,30.2,100,29.69,5.0,South,18.4,29.9,N/A,Rain,Freezing Rain,170,2013-03-18 08:35:00
3:55 AM,30.2,30.2,100,29.70,1.0,South,23.0,29.9,N/A,Snow,Light Snow,180,2013-03-18 08:55:00
4:15 AM,30.2,30.2,100,29.70,0.5,South,19.6,-,N/A,,Overcast,180,2013-03-18 09:15:00
4:35 AM,30.2,30.2,100,29.69,0.5,South,18.4,24.2,N/A,Rain,Freezing Rain,180,2013-03-18 09:35:00
4:55 AM,30.2,30.2,100,29.68,1.0,South,18.4,-,0.01,Rain,Freezing Rain,180,2013-03-18 09:55:00
5:15 AM,30.2,30.2,100,29.67,0.8,South,16.1,-,N/A,,Freezing Rain,170,2013-03-18 10:15:00
5:35 AM,30.2,30.2,100,29.67,2.0,South,18.4,-,N/A,,Overcast,180,2013-03-18 10:35:00
5:55 AM,30.2,30.2,100,29.66,1.8,South,17.3,-,N/A,,Overcast,180,2013-03-18 10:55:00
6:15 AM,30.2,30.2,100,29.65,1.0,South,17.3,-,N/A,Snow,Light Snow,170,2013-03-18 11:15:00
6:35 AM,30.2,30.2,100,29.64,2.0,South,18.4,-,N/A,Rain,Freezing Rain,170,2013-03-18 11:35:00
6:55 AM,-9999,-9999,N/A,29.64,2.5,South,18.4,-,N/A,,Overcast,180,2013-03-18 11:55:00
7:15 AM,32.0,32.0,100,29.64,3.0,South,19.6,25.3,N/A,,Overcast,190,2013-03-18 12:15:00
7:35 AM,32.0,32.0,100,29.65,2.0,West,23.0,-,N/A,,Overcast,270,2013-03-18 12:35:00
7:55 AM,32.0,32.0,100,29.65,7.0,West,24.2,-,N/A,,Overcast,280,2013-03-18 12:55:00
8:15 AM,30.2,30.2,100,29.66,2.0,WNW,20.7,31.1,N/A,,Freezing Rain,290,2013-03-18 13:15:00
8:35 AM,30.2,26.6,86,29.67,3.0,WNW,17.3,32.2,N/A,,Freezing Rain,300,2013-03-18 13:35:00
8:55 AM,28.4,24.8,86,29.67,3.0,WNW,21.9,31.1,N/A,,Freezing Rain,290,2013-03-18 13:55:00
9:15 AM,26.6,23.0,86,29.68,2.5,WNW,26.5,-,N/A,,Freezing Rain,290,2013-03-18 14:15:00
9:35 AM,24.8,21.2,86,29.69,5.0,West,24.2,-,N/A,Snow,Light Snow,280,2013-03-18 14:35:00
9:55 AM,23.0,19.4,86,29.70,3.0,WNW,19.6,29.9,N/A,,Freezing Rain,300,2013-03-18 14:55:00
10:15 AM,21.2,15.8,80,29.71,1.5,WNW,18.4,34.5,N/A,Snow,Light Snow,300,2013-03-18 15:15:00
10:35 AM,23.0,17.6,80,29.72,3.0,WNW,28.8,-,N/A,Snow,Light Snow,290,2013-03-18 15:35:00
10:55 AM,21.2,15.8,80,29.72,3.0,WNW,25.3,31.1,N/A,,Freezing Rain,300,2013-03-18 15:55:00
11:15 AM,21.2,17.6,86,29.73,1.2,WNW,28.8,35.7,N/A,,Overcast,290,2013-03-18 16:15:00
11:35 AM,21.2,15.8,80,29.73,1.8,NW,24.2,35.7,N/A,,Freezing Rain,310,2013-03-18 16:35:00
11:55 AM,21.2,14.0,74,29.74,3.0,WNW,24.2,32.2,N/A,Snow,Light Snow,300,2013-03-18 16:55:00
12:15 PM,21.2,15.8,80,29.74,1.5,WNW,26.5,38.0,N/A,Snow,Light Snow,300,2013-03-18 17:15:00
12:35 PM,21.2,14.0,74,29.75,4.0,WNW,24.2,34.5,N/A,Snow,Light Snow,300,2013-03-18 17:35:00
12:55 PM,21.2,14.0,74,29.76,5.0,WNW,25.3,33.4,N/A,Snow,Light Snow,300,2013-03-18 17:55:00
1:15 PM,21.2,14.0,74,29.76,1.8,NW,28.8,-,N/A,Snow,Light Snow,310,2013-03-18 18:15:00
1:35 PM,21.2,14.0,74,29.78,1.5,WNW,33.4,39.1,N/A,Snow,Light Snow,290,2013-03-18 18:35:00
1:55 PM,21.2,12.2,68,29.78,7.0,WNW,27.6,34.5,N/A,Snow,Light Snow,290,2013-03-18 18:55:00
2:15 PM,21.2,12.2,68,29.78,10.0,WNW,29.9,36.8,N/A,Snow,Light Snow,290,2013-03-18 19:15:00
2:35 PM,21.2,14.0,74,29.78,6.0,WNW,24.2,33.4,N/A,Snow,Light Snow,300,2013-03-18 19:35:00
2:55 PM,21.2,14.0,74,29.78,9.0,WNW,27.6,34.5,N/A,Snow,Light Snow,290,2013-03-18 19:55:00
3:15 PM,21.2,12.2,68,29.78,10.0,WNW,33.4,42.6,N/A,Snow,Light Snow,290,2013-03-18 20:15:00
3:35 PM,21.2,12.2,68,29.79,10.0,WNW,29.9,40.3,N/A,Snow,Light Snow,290,2013-03-18 20:35:00
3:55 PM,21.2,12.2,68,29.79,10.0,WNW,23.0,39.1,N/A,Snow,Light Snow,300,2013-03-18 20:55:00
4:15 PM,21.2,12.2,68,29.80,8.0,WNW,23.0,38.0,N/A,Snow,Light Snow,290,2013-03-18 21:15:00
4:35 PM,19.4,10.4,68,29.81,8.0,WNW,31.1,39.1,N/A,Snow,Light Snow,290,2013-03-18 21:35:00
4:55 PM,21.2,12.2,68,29.82,6.0,WNW,27.6,34.5,N/A,Snow,Light Snow,290,2013-03-18 21:55:00
5:15 PM,19.4,12.2,74,29.82,2.5,WNW,21.9,39.1,N/A,Snow,Light Snow,290,2013-03-18 22:15:00
5:35 PM,19.4,12.2,74,29.83,1.8,WNW,28.8,35.7,N/A,Snow,Light Snow,290,2013-03-18 22:35:00
5:55 PM,19.4,12.2,74,29.83,1.8,WNW,27.6,38.0,N/A,Snow,Light Snow,300,2013-03-18 22:55:00
6:15 PM,19.4,8.6,63,29.83,8.0,NW,21.9,34.5,N/A,Snow,Light Snow,310,2013-03-18 23:15:00
6:35 PM,19.4,10.4,68,29.84,10.0,WNW,25.3,35.7,N/A,Snow,Light Snow,300,2013-03-18 23:35:00
6:55 PM,19.4,10.4,68,29.84,4.0,WNW,24.2,36.8,N/A,Snow,Light Snow,300,2013-03-18 23:55:00
7:15 PM,17.6,8.6,68,29.85,9.0,WNW,21.9,36.8,N/A,Snow,Light Snow,300,2013-03-19 00:15:00
7:35 PM,17.6,6.8,63,29.86,10.0,NW,23.0,33.4,N/A,Snow,Light Snow,310,2013-03-19 00:35:00
7:55 PM,17.6,8.6,68,29.87,10.0,WNW,19.6,-,N/A,Snow,Light Snow,300,2013-03-19 00:55:00
8:15 PM,17.6,6.8,63,29.88,10.0,WNW,19.6,27.6,N/A,,Overcast,300,2013-03-19 01:15:00
8:35 PM,15.8,6.8,68,29.89,10.0,NW,23.0,29.9,N/A,Snow,Light Snow,310,2013-03-19 01:35:00
8:55 PM,15.8,6.8,68,29.89,-9999.0,WNW,19.6,32.2,N/A,Snow,Light Snow,300,2013-03-19 01:55:00
9:15 PM,15.8,6.8,68,29.91,10.0,WNW,18.4,26.5,N/A,Snow,Light Snow,300,2013-03-19 02:15:00
9:35 PM,15.8,6.8,68,29.92,10.0,WNW,19.6,28.8,N/A,,Partly Cloudy,300,2013-03-19 02:35:00
9:55 PM,15.8,6.8,68,29.92,10.0,NW,24.2,32.2,N/A,Snow,Light Snow,310,2013-03-19 02:55:00
10:15 PM,15.8,6.8,68,29.93,10.0,WNW,20.7,31.1,N/A,,Clear,300,2013-03-19 03:15:00
10:55 PM,14.0,5.0,67,29.93,10.0,WNW,20.7,28.8,N/A,Snow,Light Snow,300,2013-03-19 03:55:00
11:15 PM,14.0,5.0,67,29.93,10.0,WNW,16.1,25.3,N/A,,Clear,300,2013-03-19 04:15:00
11:35 PM,14.0,5.0,67,29.93,10.0,WNW,17.3,-,N/A,,Clear,300,2013-03-19 04:35:00
11:55 PM,14.0,5.0,67,29.92,10.0,NW,20.7,27.6,N/A,Snow,Light Snow,310,2013-03-19 04:55:00